Simultaneous Nadir Overpasses (SNOs) Predictions

Prediction of SNOs between LANDSAT-8 and NPP Satellite Orbit:

Table of predicted SNOs for the next 14.0 days since TLE Epoch: 6/20/2020
Index Date (LANDSAT-8) Time (LANDSAT-8) Lat,Lon (LANDSAT-8) SZA (LANDSAT-8 ) Date (NPP) Time (NPP) Lat,Lon (NPP) SZA (NPP ) Distance(km) Time Diff (sec)
1 06/20/2020 14:41:36 -70.20, 136.14 133.29 06/20/2020 14:40:24 -70.21, 135.99 133.27 5.91 72
2 06/20/2020 15:31:04 70.05, -56.43 46.57 06/20/2020 15:31:07 70.03, -56.44 46.55 1.64 3
3 06/20/2020 16:20:35 -69.88, 110.96 133.60 06/20/2020 16:21:48 -69.90, 111.08 133.59 4.94 73
4 06/23/2020 06:58:07 -70.12,-108.09 133.34 06/23/2020 06:57:16 -70.14,-108.13 133.32 1.97 51
5 06/23/2020 07:47:34 70.02, 59.41 46.56 06/23/2020 07:48:00 70.02, 59.36 46.56 1.81 26
6 06/23/2020 08:37:20 -69.03,-134.30 134.38 06/23/2020 08:38:26 -69.08,-131.97 134.41 92.88 66
7 06/25/2020 23:14:38 -70.10, 7.75 133.30 06/25/2020 23:14:09 -70.07, 7.75 133.32 3.18 29
8 06/26/2020 00:04:06 69.93, 175.16 46.56 06/26/2020 00:04:53 69.95, 175.24 46.57 3.34 47
9 06/28/2020 14:41:37 70.28, -43.74 47.01 06/28/2020 14:40:25 70.35, -44.23 47.11 20.22 72
10 06/28/2020 15:31:09 -70.06, 123.58 133.20 06/28/2020 15:31:03 -70.05, 123.55 133.21 1.79 6
11 06/28/2020 16:20:36 69.96, -68.93 46.70 06/28/2020 16:21:47 69.94, -68.97 46.68 2.49 71
12 07/01/2020 06:58:10 70.13, 71.93 47.04 07/01/2020 06:57:15 70.13, 71.89 47.05 1.46 55
13 07/01/2020 07:47:40 -70.03,-120.59 133.06 07/01/2020 07:47:57 -70.04,-120.65 133.05 2.60 17
14 07/01/2020 08:37:20 69.20, 45.93 46.16 07/01/2020 08:38:27 69.18, 47.91 46.06 78.14 67
15 07/03/2020 23:14:40 70.10,-172.25 47.22 07/03/2020 23:14:07 70.07,-172.24 47.20 2.78 33
16 07/04/2020 00:04:10 -69.99, -4.76 132.88 07/04/2020 00:04:49 -69.98, -4.78 132.90 2.24 39




NCC Satellite Simultaneous Nadir Overpasses (SNOs) Prediction Service
